Wind_Speed
17 17 16 16 16 15 15 14 14 13 12 12 12 12 11 11 11 11 10 10 9 9 8 8 8 7 7 6 6 6 6 6 6 5 5 5 5 4 4 4 4 3 3
18 17 17 17 16 16 16 15 15 14 13 13 13 13 12 12 12 11 12 11 11 10 9 9 8 8 8 8 7 7 7 7 7 6 6 6 5 5 4 4 4 3 3
18 18 18 17 17 17 17 17 16 15 15 14 14 14 14 13 13 13 12 12 11 11 10 10 9 9 9 9 9 8 8 8 8 8 7 7 6 6 5 5 4 4 4
19 19 19 18 18 17 17 17 17 17 16 16 15 15 14 14 14 14 14 13 12 12 12 11 11 11 10 10 10 9 9 9 9 9 9 8 8 7 7 6 6 5 5
20 20 20 20 19 19 18 18 18 18 17 17 17 16 16 15 15 15 14 14 14 13 13 13 12 13 12 12 11 10 10 10 10 10 10 9 9 8 8 8 7 7 7
22 21 21 21 21 21 20 20 19 19 19 18 18 18 17 17 16 16 16 15 15 15 15 14 14 14 14 13 13 12 12 12 12 11 11 11 11 10 10 9 9 8 8
23 23 23 23 22 22 22 21 21 21 20 20 20 19 19 19 18 18 18 18 17 17 17 16 16 15 15 15 15 14 14 14 14 13 13 13 13 12 12 11 11 10 10
25 25 25 25 24 23 22 22 22 22 21 21 21 21 21 21 20 20 20 19 19 19 19 18 18 18 17 17 16 16 17 16 16 15 15 15 15 15 14 14 13 13 12
26 26 26 26 25 24 24 24 24 24 24 23 22 22 22 22 22 22 22 21 21 21 21 21 21 20 20 19 18 18 18 18 18 18 18 18 17 17 17 16 16 15 15
27 27 27 26 26 26 26 25 26 26 26 26 25 24 24 24 24 24 24 23 23 23 23 23 22 22 22 21 21 20 20 21 20 20 20 20 20 19 19 19 18 18 17
29 29 28 28 27 27 27 27 27 27 27 27 27 27 26 26 25 25 25 25 25 24 25 25 25 24 24 24 23 23 23 23 23 23 22 22 22 22 21 21 21 20 20
31 31 30 30 29 29 28 28 28 28 29 29 29 29 29 28 28 27 27 27 27 27 27 27 27 26 26 26 25 25 25 25 25 25 25 25 24 24 24 24 23 23 22
32 32 32 31 31 31 31 30 30 30 30 31 31 31 30 30 30 30 29 29 29 29 29 28 28 28 28 28 28 27 27 27 27 27 27 27 27 27 26 26 26 25 24
34 34 33 33 33 33 33 33 33 32 32 32 32 33 32 32 32 32 31 31 31 31 30 30 30 30 30 31 31 30 30 30 29 29 29 29 29 29 28 28 27 27 27
36 36 36 36 35 35 35 35 35 34 34 34 34 34 34 34 34 34 33 33 33 33 33 32 31 31 32 32 32 33 33 33 32 32 31 31 31 30 30 30 30 29 29
39 39 38 38 38 38 37 37 37 36 36 36 35 35 35 36 36 36 35 35 35 34 34 34 34 33 33 33 34 34 34 34 34 34 33 33 33 33 33 32 32 32 31
40 40 40 40 40 40 40 40 39 39 39 39 38 38 37 38 38 38 37 37 37 36 36 36 36 36 36 35 35 35 35 35 35 35 35 35 35 35 35 34 34 34 34
42 42 42 42 42 42 42 42 41 42 42 41 41 40 40 40 40 39 39 39 39 38 38 38 38 38 38 38 37 37 37 37 37 37 37 38 38 37 37 37 36 36 36
43 44 44 44 44 44 44 43 43 43 43 43 43 43 42 42 42 41 41 41 41 41 40 40 40 40 40 40 40 40 40 40 39 39 39 39 40 39 39 39 39 38 37
45 45 45 46 46 46 46 45 45 45 45 45 45 45 44 44 44 43 43 43 43 43 43 42 42 42 42 43 42 42 42 42 42 42 41 41 41 41 41 41 41 40 40
46 46 46 47 47 47 47 47 47 47 46 46 47 47 47 47 46 46 46 46 46 45 45 45 44 44 44 44 44 44 43 43 44 44 44 43 43 43 43 43 42 42 42
46 47 47 47 47 48 48 48 48 48 48 48 48 49 49 48 48 48 48 48 48 47 47 46 46 46 45 45 45 45 45 45 45 45 45 45 45 45 45 45 45 44 44
47 47 47 47 48 48 49 49 50 50 50 50 51 51 51 51 51 51 51 50 50 50 49 48 48 47 48 47 46 47 47 47 46 46 47 47 47 47 46 46 46 46 47
47 48 48 48 49 50 50 51 51 51 51 52 52 53 53 53 53 53 52 52 52 52 52 51 50 50 50 50 49 48 49 49 49 49 48 49 48 48 48 48 47 48 48
48 49 49 50 50 51 51 51 52 52 52 53 53 54 54 54 54 54 55 54 54 54 53 53 53 52 52 52 51 50 50 50 50 50 50 50 50 50 50 50 50 49 49
47 48 49 50 51 52 52 52 52 53 54 54 54 54 55 55 55 56 57 57 56 56 55 55 55 55 54 54 54 53 53 52 52 52 52 52 52 52 52 51 51 52 52
Wind_Direction
238 238 237 235 231 229 227 224 222 218 218 216 216 216 214 212 213 216 216 213 213 213 213 211 209 207 207 204 203 204 207 208 206 206 205 202 200 199 199 197 198 206 212
238 238 237 234 231 228 227 226 226 224 221 220 219 218 217 218 218 218 218 218 219 218 219 219 214 212 210 209 210 211 214 216 216 215 214 212 210 209 210 211 216 223 227
237 236 236 234 233 231 228 227 228 228 227 225 221 221 220 220 220 221 222 223 222 223 224 222 219 217 216 216 218 218 219 222 221 221 221 220 219 221 224 226 228 234 242
237 235 235 234 234 233 231 230 230 229 229 228 227 225 226 225 225 222 224 226 225 225 226 225 224 223 222 222 224 225 225 225 226 226 227 227 227 227 228 231 235 241 247
238 236 234 234 235 235 234 232 232 231 230 230 229 228 229 229 230 227 225 226 227 227 228 229 230 230 228 227 226 227 228 228 227 229 230 230 231 230 230 234 240 244 250
238 236 235 235 236 237 237 236 236 234 233 233 232 232 232 233 233 232 231 230 230 231 232 232 233 234 233 232 231 233 234 234 232 233 233 234 235 235 236 238 243 246 251
238 237 236 236 236 235 237 238 238 238 237 236 236 235 235 235 236 235 235 235 234 234 234 235 236 237 237 238 239 239 239 239 238 238 239 238 239 240 242 243 246 248 253
239 238 238 238 238 237 237 238 238 239 239 239 239 239 238 237 237 237 238 240 239 238 238 238 240 240 239 241 241 243 242 242 242 242 242 241 243 244 245 246 248 251 255
241 240 239 239 239 238 238 239 239 240 241 241 241 240 240 240 239 239 241 242 241 241 241 241 242 243 242 244 245 245 245 244 245 245 245 245 246 248 249 250 251 253 256
243 243 241 241 241 240 240 240 241 242 243 242 243 243 242 242 242 242 243 243 243 243 243 244 244 245 245 245 246 247 248 248 248 248 248 248 248 249 251 252 252 254 257
243 243 242 242 242 242 242 243 243 243 243 244 244 244 245 244 244 244 244 244 245 245 246 246 246 246 247 248 248 248 249 250 250 251 251 250 250 250 251 252 253 255 257
243 243 242 243 243 244 244 244 244 244 245 245 245 245 245 246 245 246 246 246 247 248 248 247 247 248 249 250 250 250 250 251 251 252 252 252 252 252 252 253 255 256 258
243 243 244 244 244 244 244 245 245 246 246 247 247 246 246 247 247 247 248 248 248 249 250 250 250 251 251 251 252 252 252 252 252 253 253 253 253 254 254 255 256 256 257
244 243 244 244 244 244 244 245 246 247 247 247 247 247 247 248 248 248 249 249 249 249 251 252 253 253 253 253 253 253 254 254 254 254 255 255 254 254 255 255 256 257 257
245 244 244 244 245 245 245 245 246 247 247 247 247 248 248 249 248 249 249 250 251 251 251 252 253 254 254 254 254 254 254 255 254 255 255 255 255 255 255 256 257 257 258
246 246 245 245 246 246 247 247 247 247 248 248 249 250 250 250 250 250 250 251 251 252 252 252 253 254 255 255 255 255 254 255 254 254 255 255 256 256 256 256 257 257 258
246 246 246 246 247 248 248 249 249 248 249 249 249 250 251 251 251 251 251 251 251 252 253 254 254 255 256 256 256 256 255 255 254 255 255 255 256 257 257 257 257 258 258
247 247 248 248 248 248 249 249 249 249 249 250 250 250 251 251 251 252 252 252 252 253 254 255 256 256 256 256 257 257 257 257 256 256 256 256 256 257 257 257 258 258 258
248 248 248 248 249 249 250 250 250 250 250 251 251 251 251 252 252 253 253 253 253 253 254 255 255 257 257 257 257 257 257 258 257 257 257 257 257 257 258 258 258 258 258
249 248 249 249 249 250 250 251 251 251 251 251 251 252 252 252 253 253 253 254 254 255 255 256 256 257 257 257 257 258 258 257 258 258 258 258 258 258 258 258 258 258 258
250 250 250 250 250 250 250 251 251 251 252 252 252 253 253 253 253 254 254 255 255 256 256 257 257 258 258 258 258 258 258 258 258 258 258 259 259 259 260 259 259 259 260
251 251 250 251 251 251 251 251 251 251 252 252 253 253 253 253 253 254 255 255 255 256 257 258 258 259 259 259 258 258 257 257 258 258 259 259 260 260 260 259 259 259 260
251 251 251 251 251 251 251 252 252 252 252 253 253 254 253 253 253 254 254 255 255 256 257 258 258 258 258 258 259 258 258 258 258 258 258 259 260 260 260 260 260 259 260
252 251 251 251 252 252 252 252 253 253 253 253 253 254 254 254 254 254 255 255 255 256 257 257 257 258 258 258 259 259 259 259 259 259 258 259 260 260 261 261 261 260 261
253 252 252 252 252 252 252 252 253 253 253 254 254 254 254 254 254 255 255 256 256 256 257 257 257 257 258 258 259 260 260 260 260 260 259 259 259 259 260 261 261 261 261
254 253 253 253 253 253 253 253 253 253 253 254 254 254 254 255 255 255 255 255 256 256 256 256 257 257 258 258 259 259 260 260 260 260 260 260 260 259 260 260 261 261 261
Height
5831 5831 5832 5833 5834 5835 5836 5837 5838 5839 5840 5841 5842 5843 5844 5844 5845 5846 5847 5848 5848 5849 5849 5850 5851 5851 5852 5853 5853 5854 5854 5855 5855 5856 5856 5856 5857 5857 5857 5857 5857 5857 5857
5827 5828 5830 5831 5832 5833 5834 5835 5836 5837 5838 5839 5840 5841 5842 5842 5843 5844 5845 5846 5847 5847 5848 5849 5849 5850 5851 5851 5852 5853 5853 5854 5854 5855 5856 5856 5856 5857 5857 5857 5857 5857 5857
5824 5825 5827 5828 5829 5830 5832 5833 5834 5835 5836 5837 5838 5839 5839 5840 5841 5842 5843 5844 5845 5846 5846 5847 5848 5848 5849 5850 5851 5851 5852 5853 5853 5854 5854 5855 5855 5856 5856 5856 5856 5856 5856
5821 5822 5823 5825 5826 5827 5829 5830 5831 5832 5833 5834 5836 5836 5837 5838 5839 5840 5841 5842 5843 5844 5844 5845 5846 5847 5848 5848 5849 5850 5850 5851 5852 5852 5853 5853 5854 5854 5855 5855 5855 5855 5855
5817 5819 5820 5822 5823 5824 5826 5827 5828 5829 5830 5832 5833 5834 5835 5836 5836 5838 5838 5839 5840 5841 5842 5843 5844 5845 5846 5847 5847 5848 5849 5849 5850 5851 5851 5852 5852 5853 5853 5853 5854 5854 5854
5813 5815 5816 5818 5819 5821 5822 5824 5825 5826 5827 5828 5830 5831 5832 5833 5834 5835 5836 5837 5838 5839 5840 5841 5842 5843 5844 5844 5845 5846 5847 5847 5848 5849 5849 5850 5850 5851 5851 5852 5852 5852 5852
5809 5811 5812 5814 5815 5816 5818 5820 5821 5823 5824 5825 5826 5828 5829 5830 5831 5832 5833 5834 5835 5836 5837 5838 5839 5840 5841 5842 5843 5843 5844 5845 5846 5846 5847 5848 5848 5849 5849 5850 5850 5850 5850
5805 5806 5807 5809 5810 5812 5814 5815 5817 5819 5820 5821 5823 5824 5825 5826 5827 5828 5829 5830 5831 5832 5834 5835 5836 5837 5838 5839 5840 5840 5841 5842 5843 5843 5844 5845 5845 5846 5847 5847 5848 5848 5848
5800 5801 5803 5804 5806 5807 5809 5810 5812 5814 5816 5817 5818 5820 5821 5822 5823 5824 5826 5827 5828 5829 5830 5831 5832 5833 5834 5835 5836 5837 5838 5839 5840 5840 5841 5842 5842 5843 5844 5844 5845 5845 5845
5795 5796 5798 5799 5801 5802 5804 5806 5807 5809 5811 5812 5814 5815 5816 5818 5819 5820 5821 5822 5823 5824 5825 5827 5828 5829 5830 5831 5832 5833 5834 5835 5835 5836 5837 5838 5839 5839 5840 5841 5841 5842 5842
5789 5791 5793 5794 5796 5797 5799 5801 5802 5804 5805 5807 5808 5810 5811 5813 5814 5815 5816 5817 5819 5820 5821 5822 5823 5824 5825 5826 5827 5828 5829 5830 5831 5832 5833 5834 5834 5835 5836 5837 5837 5838 5838
5783 5785 5786 5788 5790 5792 5793 5795 5796 5798 5799 5801 5802 5804 5805 5807 5808 5809 5811 5812 5813 5814 5815 5817 5818 5819 5820 5821 5822 5823 5824 5825 5826 5827 5828 5829 5830 5830 5831 5832 5833 5833 5834
5776 5778 5780 5782 5783 5785 5787 5789 5790 5792 5793 5795 5796 5798 5799 5800 5802 5803 5805 5806 5807 5808 5810 5811 5812 5813 5814 5815 5816 5817 5818 5819 5820 5821 5822 5823 5824 5825 5826 5827 5828 5828 5829
5769 5771 5772 5774 5776 5778 5780 5782 5783 5785 5786 5788 5789 5791 5792 5794 5795 5797 5798 5799 5801 5802 5803 5804 5805 5807 5808 5809 5810 5811 5812 5813 5814 5815 5816 5817 5818 5819 5820 5821 5822 5823 5824
5760 5763 5765 5767 5768 5770 5772 5774 5776 5778 5779 5781 5782 5784 5785 5786 5788 5789 5791 5792 5794 5795 5796 5797 5798 5800 5801 5802 5803 5804 5805 5806 5807 5808 5809 5810 5812 5813 5813 5814 5815 5817 5817
5752 5754 5756 5758 5760 5762 5764 5766 5768 5770 5771 5773 5774 5776 5777 5779 5780 5782 5783 5785 5786 5787 5789 5790 5791 5792 5793 5794 5795 5796 5798 5799 5800 5801 5802 5803 5805 5806 5807 5808 5809 5810 5810
5742 5744 5747 5749 5751 5753 5755 5757 5759 5761 5763 5764 5766 5768 5769 5771 5772 5774 5775 5777 5778 5780 5781 5782 5783 5784 5785 5786 5788 5789 5790 5791 5792 5793 5794 5795 5797 5798 5799 5800 5801 5802 5803
5732 5734 5737 5739 5741 5743 5745 5747 5750 5751 5753 5755 5757 5759 5760 5762 5764 5765 5767 5768 5770 5771 5772 5774 5775 5776 5777 5778 5779 5780 5781 5782 5784 5785 5786 5787 5788 5789 5791 5792 5793 5794 5795
5722 5724 5726 5728 5731 5733 5735 5737 5739 5741 5743 5745 5747 5749 5751 5753 5754 5756 5758 5759 5761 5762 5763 5764 5766 5767 5768 5769 5770 5771 5772 5773 5774 5776 5777 5778 5779 5780 5781 5783 5784 5785 5786
5710 5713 5715 5717 5720 5722 5724 5726 5728 5731 5733 5735 5737 5739 5741 5743 5745 5746 5748 5749 5751 5752 5753 5755 5756 5757 5758 5759 5760 5761 5762 5764 5765 5766 5767 5768 5769 5771 5772 5773 5774 5776 5777
5699 5701 5704 5706 5708 5710 5713 5715 5717 5720 5722 5724 5726 5728 5730 5732 5734 5735 5737 5739 5740 5742 5743 5744 5746 5747 5748 5749 5750 5751 5752 5753 5754 5756 5757 5758 5759 5761 5762 5763 5764 5765 5767
5686 5689 5691 5694 5696 5698 5701 5703 5705 5707 5710 5711 5713 5716 5718 5720 5722 5724 5726 5727 5729 5730 5732 5733 5734 5735 5737 5738 5739 5740 5741 5743 5744 5745 5746 5747 5749 5750 5751 5752 5754 5755 5756
5674 5676 5679 5681 5684 5686 5688 5690 5692 5695 5697 5699 5701 5704 5706 5708 5710 5711 5713 5715 5717 5718 5720 5722 5723 5724 5725 5726 5727 5728 5730 5731 5733 5734 5735 5736 5737 5739 5740 5741 5742 5744 5745
5661 5663 5665 5668 5670 5673 5675 5677 5679 5682 5684 5686 5688 5690 5692 5694 5696 5698 5700 5702 5704 5705 5707 5709 5710 5712 5713 5714 5715 5716 5717 5718 5720 5722 5724 5724 5725 5726 5728 5729 5731 5732 5733
5647 5649 5652 5654 5657 5659 5661 5663 5666 5668 5670 5672 5674 5676 5678 5680 5683 5685 5686 5688 5690 5692 5694 5695 5697 5698 5700 5701 5702 5703 5704 5705 5706 5708 5710 5712 5713 5714 5715 5716 5718 5719 5720
5633 5635 5638 5640 5642 5645 5647 5649 5651 5654 5656 5658 5660 5662 5664 5666 5668 5670 5672 5674 5676 5677 5679 5681 5683 5684 5686 5687 5688 5690 5691 5692 5694 5695 5696 5698 5699 5701 5702 5703 5705 5706 5707